EW1276 Weather Reports


Display with metric or nautical units.
time (UTC)temp
F
wind
direction
speed
MPH
gust
MPH
rain 1hr
in
rain 24hr
in
rain mn
in
humidity
%
barometer
mb
20260505100059 60 67 0.0 3.0 0.01 0.09 0.09 90 1005.7
20260505094540 60 0 0.0 2.0 0.01 0.09 0.09 89 1005.3
20260505093059 62 0 0.0 4.0 0.03 0.08 0.08 83 1004.8
20260505091543 61 317 2.0 9.0 0.04 0.08 0.08 84 1004.7
20260505090042 61 232 9.0 17.0 0.05 0.08 0.08 88 1003.6
20260505084543 61 293 7.0 12.0 0.08 0.08 0.08 92 1004.6
20260505083041 61 304 2.0 9.0 0.05 0.05 0.05 92 1006.1
20260505081548 62 0 1.0 10.0 0.04 0.04 0.04 90 1006.1
20260505080057 62 28 1.0 8.0 0.02 0.02 0.02 87 1005.7
20260505074543 64 338 5.0 16.0 0.00 0.00 0.00 80 1005.6
20260505073043 65 18 5.0 12.0 0.00 0.00 0.00 77 1005.9
20260505071549 65 5 3.0 10.0 0.00 0.00 0.00 74 1005.7
20260505070109 65 272 2.0 9.0 0.00 0.00 0.00 74 1005.5
20260505064544 65 309 3.0 8.0 0.00 0.00 0.00 74 1005.5
20260505063047 65 296 5.0 9.0 0.00 0.00 0.00 73 1006.0
20260505061544 65 318 2.0 6.0 0.00 0.00 0.00 74 1006.1
20260505060043 65 291 2.0 8.0 0.00 0.00 0.00 74 1006.2
20260505054547 65 275 2.0 7.0 0.00 0.00 0.00 73 1006.2
20260505053047 65 292 3.0 9.0 0.00 0.00 0.00 73 1006.1
20260505051543 65 263 4.0 10.0 0.00 0.00 0.00 73 1006.1
20260505041546 67 288 3.0 8.0 0.00 0.00 0.00 70 1006.7
20260505040045 67 263 2.0 5.0 0.00 0.00 0.00 70 1007.0
20260505034546 67 329 1.0 5.0 0.00 0.00 0.00 70 1007.1
20260505033041 68 298 1.0 3.0 0.00 0.00 0.00 69 1007.2
20260505031547 68 302 0.0 4.0 0.00 0.00 0.00 67 1007.2
20260505030042 69 324 1.0 5.0 0.00 0.00 0.00 67 1007.2
20260505024544 69 329 3.0 10.0 0.00 0.00 0.00 66 1007.1
20260505023050 70 30 2.0 8.0 0.00 0.00 0.00 66 1006.8
20260505021544 70 303 3.0 10.0 0.00 0.00 0.00 65 1006.5
20260505020040 70 325 1.0 8.0 0.00 0.00 0.00 65 1006.4
20260505014542 70 313 0.0 3.0 0.00 0.00 0.00 64 1006.2
20260505013046 71 0 0.0 4.0 0.00 0.00 0.00 62 1005.9
20260505011544 72 0 1.0 4.0 0.00 0.00 0.00 61 1005.8
20260505010103 72 300 1.0 7.0 0.00 0.00 0.00 59 1005.5
20260505004541 73 311 3.0 9.0 0.00 0.00 0.00 58 1005.5
20260505003045 74 360 1.0 6.0 0.00 0.00 0.00 57 1005.5
20260505001541 75 0 0.0 4.0 0.00 0.00 0.00 55 1005.3
20260505000045 76 350 1.0 9.0 0.00 0.00 0.00 53 1005.4
20260504234544 76 328 3.0 11.0 0.00 0.00 0.00 51 1005.4
20260504233042 77 74 2.0 11.0 0.00 0.00 0.00 52 1005.2
20260504231545 78 335 5.0 11.0 0.00 0.00 0.00 51 1005.2
20260504230045 78 360 6.0 14.0 0.00 0.00 0.00 49 1005.3
20260504224540 79 352 5.0 14.0 0.00 0.00 0.00 50 1005.2
20260504223045 79 302 7.0 14.0 0.00 0.00 0.00 50 1005.4
20260504221556 79 340 6.0 14.0 0.00 0.00 0.00 50 1005.3
20260504220044 79 296 6.0 15.0 0.00 0.00 0.00 50 1005.4
20260504214538 79 330 4.0 16.0 0.00 0.00 0.00 51 1005.4
20260504213057 78 336 7.0 15.0 0.00 0.00 0.00 51 1005.6
20260504211546 79 318 5.0 13.0 0.00 0.00 0.00 51 1005.6
20260504210038 80 306 4.0 12.0 0.00 0.00 0.00 50 1005.9
20260504204542 80 322 6.0 17.0 0.00 0.00 0.00 50 1006.1
20260504203049 79 80 7.0 16.0 0.00 0.00 0.00 50 1006.2
20260504201541 79 325 6.0 15.0 0.00 0.00 0.00 50 1006.5
20260504200039 79 338 7.0 16.0 0.00 0.00 0.00 51 1006.5
20260504194544 79 337 9.0 18.0 0.00 0.00 0.00 50 1006.7
20260504193039 79 5 6.0 21.0 0.00 0.00 0.00 50 1006.8
20260504191543 79 9 8.0 23.0 0.00 0.00 0.00 52 1007.0
20260504190044 79 9 7.0 18.0 0.00 0.00 0.00 50 1006.9
20260504184542 78 345 7.0 21.0 0.00 0.00 0.00 52 1006.9
20260504183043 78 345 8.0 17.0 0.00 0.00 0.00 52 1006.9
20260504181543 78 42 8.0 16.0 0.00 0.00 0.00 50 1007.1
20260504180047 77 11 9.0 21.0 0.00 0.00 0.00 53 1007.1
20260504174546 78 314 6.0 15.0 0.00 0.00 0.00 53 1007.2
20260504173042 77 40 8.0 23.0 0.00 0.00 0.00 51 1007.4
20260504171544 77 360 5.0 18.0 0.00 0.00 0.00 54 1007.4